Flag for United Kingdom Weather past 2 weeks in Portsmouth, England, United Kingdom

Now
64 °F

Sunny.


Feels Like: 64 °F
Forecast: 61 / 78 °F
Wind: 6 mph from North

Location: Southampton / Weather Centre

Current Time: Jul 22, 2014 at 9:01:02 AM

Latest Report: Jul 22, 2014 at 8:20 AM


Visibility: 10 mi

Pressure: 30.21 "Hg

Humidity: 73%

Dew point: 55 °F

Location of PortsmouthLocation

Historic Weather in Portsmouth — Graph

°F

Portsmouth temperature yesterday

Maximum temperature yesterday: 77 °F (at 2:50 PM)
Minimum temperature yesterday: 61 °F (at 5:50 AM)
Average temperature yesterday: 71 °F

Past Weeks' High & Low Weather Summary

 TemperatureHumidityPressure
High79 °F (Jul 17, 5:20 PM)100% (Jul 11, 5:50 AM)30.21 "Hg (Jul 11, 5:50 AM)
Low50 °F (Jul 9, 5:50 AM)41% (Jul 10, 2:20 PM)29.71 "Hg (Jul 19, 5:20 PM)
Average67 °F66%29.99 "Hg
* Reported Jul 7 7:20 AM — Jul 22 7:50 AM, Portsmouth, Weather by CustomWeather, © 2014

Note: Actual official high and low records may vary slightly from our data, if they occured in-between our weather recording intervals... More about our weather records

Advertising

Portsmouth weather history for previous 24 hours

 ConditionsComfort  
Time TempWeatherWind HumidityBarometerVisibility
7:50 AM
Jul 22
64 °FPassing clouds.7 mph73%30.21 "HgN/A
7:20 AM63 °FPassing clouds.5 mph77%30.21 "HgN/A
6:50 AM59 °FSunny.3 mph88%30.18 "Hg10 mi
6:20 AM57 °FSunny.No wind88%30.18 "Hg10 mi
5:50 AM55 °FClear.5 mph94%30.18 "Hg10 mi
10:20 PM
Jul 21
70 °FClear.2 mph57%30.15 "Hg10 mi
9:50 PM70 °FSunny.2 mph57%30.15 "Hg10 mi
9:20 PM70 °FSunny.5 mph57%30.15 "Hg10 mi
8:50 PM72 °FPassing clouds.5 mph53%30.12 "HgN/A
8:20 PM73 °FPassing clouds.8 mph50%30.12 "HgN/A
7:50 PM73 °FPassing clouds.9 mph53%30.12 "HgN/A
7:20 PM75 °FPassing clouds.8 mph50%30.12 "HgN/A
6:50 PM75 °FPassing clouds.10 mph50%30.09 "HgN/A
6:20 PM75 °FPassing clouds.9 mph50%30.09 "HgN/A
5:50 PM77 °FPassing clouds.9 mph47%30.09 "HgN/A
5:20 PM75 °FPassing clouds.10 mph50%30.09 "HgN/A
4:50 PM77 °FPassing clouds.9 mph47%30.09 "HgN/A
4:20 PM75 °FPassing clouds.9 mph47%30.09 "HgN/A
3:50 PM75 °FPassing clouds.8 mph47%30.09 "HgN/A
3:20 PM75 °FPassing clouds.8 mph47%30.09 "HgN/A
2:50 PM77 °FPassing clouds.8 mph47%30.09 "HgN/A
2:20 PM75 °FPassing clouds.9 mph47%30.09 "HgN/A
1:50 PM75 °FScattered clouds.10 mph47%30.09 "HgN/A
1:20 PM73 °FScattered clouds.10 mph50%30.09 "HgN/A
12:50 PM75 °FPassing clouds.10 mph50%30.09 "HgN/A
12:20 PM73 °FPassing clouds.9 mph53%30.09 "HgN/A
11:50 AM72 °FPassing clouds.10 mph53%30.09 "HgN/A
11:20 AM72 °FPassing clouds.8 mph57%30.09 "HgN/A
10:50 AM72 °FPassing clouds.9 mph53%30.09 "HgN/A
10:20 AM70 °FPassing clouds.9 mph60%30.09 "HgN/A
9:50 AM68 °FPassing clouds.9 mph60%30.09 "HgN/A
9:20 AM68 °FPassing clouds.9 mph64%30.07 "HgN/A
Weather by CustomWeather, © 2014

See weather overviewHow to use our weather pages